West Yellowstone, MT

6:14 PM MST on February 10, 2016 (GMT -0700)
Yellowstone

Weather History for KWYS - November, 2012

Change the Weather History Date:

Tuesday, November 27, 2012

  Actual Average (KP60) Record (KP60)
Temperature  
Mean Temperature 24 °F 18 °F  
Max Temperature 33 °F 27 °F 43 °F (1998)
Min Temperature 15 °F 8 °F -8 °F (2001)
Degree Days  
Heating Degree Days 41 48  
Month to date heating degree days 1127  
Since 1 July heating degree days 3175  
Cooling Degree Days 0 0  
Month to date cooling degree days 0  
Year to date cooling degree days 0  
Moisture  
Dew Point -    
Average Humidity    
Maximum Humidity    
Minimum Humidity    
Precipitation  
Precipitation 0.00 in 0.07 in 0.27 in (2010)
Month to date precipitation 1.88  
Year to date precipitation 18.60  
Sea Level Pressure  
Sea Level Pressure 30.21 in    
Wind  
Wind Speed 3 mph (SSW)    
Max Wind Speed 14 mph    
Max Gust Speed 23 mph    
Visibility 10 miles    
Events      
T = Trace of Precipitation, MM = Missing Value Source: NWS Daily Summary

Daily Weather History Graph

Daily Weather History Graph

Search for Another Location

Airport or City:

Trip Planner

Search our weather history database for the weather conditions in past years. The results will help you decide how hot, cold, wet, or windy it might be!

Date:

Astronomy

Nov. 27, 2012 Rise Set
Actual Time 7:37 AM MST 4:46 PM MST
Civil Twilight 7:04 AM MST 5:19 PM MST
Nautical Twilight 6:28 AM MST 5:55 PM MST
Astronomical Twilight 5:53 AM MST 6:30 PM MST
Moon 4:21 PM MST (11/27) 6:44 AM MST (11/27)
Length of Visible Light 10h 14m
Length of Day
9h 09m
Waxing Gibbous, 99% of the Moon is Illuminated
Nov 27
Waxing Gibbous
Nov 28
Full
Dec 6
Last Quarter
Dec 13
New
Dec 19
First Quarter

Hourly Weather History & Observations

Time (MST) Temp. Windchill Dew Point Humidity Pressure Visibility Wind Dir Wind Speed Gust Speed Precip Events Conditions
12:10 AM 17.6 °F - - N/A% 30.21 in 10.0 mi Calm Calm - N/A   Overcast
12:30 AM 17.6 °F - - N/A% 30.21 in 10.0 mi Calm Calm - N/A   Overcast
12:50 AM 17.6 °F 12.3 °F - N/A% 30.20 in 10.0 mi NE 3.5 mph - N/A   Overcast
1:10 AM 19.4 °F - - N/A% 30.20 in 10.0 mi Calm Calm - N/A   Overcast
1:30 AM 17.6 °F 12.3 °F - N/A% 30.20 in 10.0 mi WSW 3.5 mph - N/A   Overcast
1:50 AM 17.6 °F - - N/A% 30.19 in 10.0 mi Calm Calm - N/A   Overcast
2:10 AM 17.6 °F - - N/A% 30.19 in 10.0 mi Calm Calm - N/A   Overcast
2:30 AM 19.4 °F - - N/A% 30.19 in 10.0 mi Calm Calm - N/A   Overcast
2:50 AM 19.4 °F - - N/A% 30.19 in 10.0 mi Calm Calm - N/A   Overcast
3:10 AM 19.4 °F - - N/A% 30.19 in 10.0 mi Calm Calm - N/A   Overcast
3:30 AM 19.4 °F - - N/A% 30.19 in 10.0 mi Calm Calm - N/A   Overcast
3:50 AM 19.4 °F - - N/A% 30.19 in 10.0 mi Calm Calm - N/A   Overcast
4:10 AM 21.2 °F - - N/A% 30.18 in 10.0 mi Calm Calm - N/A   Overcast
4:30 AM 21.2 °F 16.4 °F - N/A% 30.19 in 10.0 mi WSW 3.5 mph - N/A   Overcast
4:50 AM 23.0 °F - - N/A% 30.19 in 10.0 mi Calm Calm - N/A   Overcast
5:30 AM 26.6 °F 21.2 °F - N/A% 30.19 in 10.0 mi SW 4.6 mph - N/A   Overcast
5:50 AM 26.6 °F 17.5 °F - N/A% 30.20 in 10.0 mi SW 9.2 mph - N/A   Overcast
6:10 AM 26.6 °F 21.2 °F - N/A% 30.20 in 10.0 mi WSW 4.6 mph - N/A   Overcast
6:30 AM 26.6 °F 19.1 °F - N/A% 30.20 in 10.0 mi WSW 6.9 mph - N/A   Overcast
6:50 AM 26.6 °F 21.2 °F - N/A% 30.20 in 10.0 mi SW 4.6 mph - N/A   Overcast
7:10 AM 26.6 °F - - N/A% 30.21 in 10.0 mi Calm Calm - N/A   Overcast
7:30 AM 26.6 °F - - N/A% 30.22 in 10.0 mi Calm Calm - N/A   Overcast
7:50 AM 24.8 °F - - N/A% 30.22 in 10.0 mi Calm Calm - N/A   Overcast
8:10 AM 28.4 °F 21.2 °F - N/A% 30.22 in 10.0 mi South 6.9 mph - N/A   Overcast
8:30 AM 28.4 °F 19.7 °F - N/A% 30.23 in 10.0 mi SSW 9.2 mph - N/A   Overcast
8:50 AM 28.4 °F 20.4 °F - N/A% 30.23 in 10.0 mi SSW 8.1 mph - N/A   Overcast
9:10 AM 28.4 °F 23.3 °F - N/A% 30.24 in 10.0 mi NW 4.6 mph - N/A   Overcast
9:30 AM 28.4 °F - - N/A% 30.24 in 10.0 mi Calm Calm - N/A   Overcast
9:50 AM 28.4 °F 24.6 °F - N/A% 30.24 in 10.0 mi SSW 3.5 mph - N/A   Overcast
10:10 AM 30.2 °F 24.3 °F - N/A% 30.24 in 10.0 mi South 5.8 mph - N/A   Overcast
10:30 AM 32.0 °F 24.2 °F - N/A% 30.24 in 10.0 mi SSW 9.2 mph 16.1 mph N/A   Overcast
10:50 AM 32.0 °F 24.2 °F - N/A% 30.24 in 10.0 mi SSW 9.2 mph - N/A   Overcast
11:10 AM 32.0 °F 23.0 °F - N/A% 30.24 in 10.0 mi SSW 11.5 mph 20.7 mph N/A   Overcast
11:30 AM 32.0 °F 23.6 °F - N/A% 30.23 in 10.0 mi SW 10.4 mph - N/A   Overcast
11:50 AM 32.0 °F 22.5 °F - N/A% 30.22 in 10.0 mi SSW 12.7 mph 20.7 mph N/A   Overcast
12:10 PM 32.0 °F 22.1 °F - N/A% 30.22 in 10.0 mi SSW 13.8 mph 20.7 mph N/A   Overcast
12:30 PM 32.0 °F 24.2 °F - N/A% 30.21 in 10.0 mi SSW 9.2 mph - N/A   Overcast
12:50 PM 32.0 °F 24.2 °F - N/A% 30.21 in 10.0 mi SW 9.2 mph 23.0 mph N/A   Overcast
1:10 PM 32.0 °F 24.2 °F - N/A% 30.21 in 10.0 mi SSW 9.2 mph - N/A   Overcast
1:30 PM 32.0 °F 24.2 °F - N/A% 30.21 in 10.0 mi SW 9.2 mph 20.7 mph N/A   Overcast
1:50 PM 32.0 °F 25.6 °F - N/A% 30.21 in 10.0 mi SW 6.9 mph 17.3 mph N/A   Overcast
2:10 PM 32.0 °F 22.1 °F - N/A% 30.21 in 10.0 mi SSW 13.8 mph 17.3 mph N/A   Overcast
2:30 PM 32.0 °F 24.8 °F - N/A% 30.21 in 10.0 mi SSW 8.1 mph 18.4 mph N/A   Overcast
2:50 PM 33.8 °F 27.0 °F - N/A% 30.21 in 10.0 mi SSW 8.1 mph - N/A   Overcast
3:10 PM 33.8 °F 25.3 °F - N/A% 30.21 in 10.0 mi South 11.5 mph 16.1 mph N/A   Overcast
3:30 PM 33.8 °F - - N/A% 30.21 in 10.0 mi Calm Calm - N/A   Overcast
3:50 PM 33.8 °F - - N/A% 30.22 in 10.0 mi Calm Calm - N/A   Overcast
4:10 PM 32.0 °F 26.4 °F - N/A% 30.22 in 10.0 mi South 5.8 mph - N/A   Overcast
4:50 PM 32.0 °F 27.5 °F - N/A% 30.22 in 10.0 mi SSE 4.6 mph - N/A   Mostly Cloudy
5:10 PM 32.0 °F 28.7 °F - N/A% 30.22 in 10.0 mi SSE 3.5 mph - N/A   Clear
5:30 PM 28.4 °F - - N/A% 30.22 in 10.0 mi Calm Calm - N/A   Partly Cloudy
5:50 PM 28.4 °F 24.6 °F - N/A% 30.21 in 10.0 mi SW 3.5 mph - N/A   Partly Cloudy
6:10 PM 30.2 °F - - N/A% 30.21 in 10.0 mi Calm Calm - N/A   Partly Cloudy
6:30 PM 28.4 °F 24.6 °F - N/A% 30.21 in 10.0 mi ESE 3.5 mph - N/A   Clear
6:50 PM 28.4 °F 24.6 °F - N/A% 30.21 in 10.0 mi SSE 3.5 mph - N/A   Clear
7:10 PM 28.4 °F 21.2 °F - N/A% 30.21 in 10.0 mi South 6.9 mph - N/A   Clear
7:30 PM 26.6 °F 22.6 °F - N/A% 30.21 in 10.0 mi SSE 3.5 mph - N/A   Clear
7:50 PM 26.6 °F - - N/A% 30.21 in 10.0 mi Calm Calm - N/A   Clear
8:10 PM 26.6 °F - - N/A% 30.22 in 10.0 mi Calm Calm - N/A   Clear
8:30 PM 24.8 °F - - N/A% 30.22 in 10.0 mi Calm Calm - N/A   Clear
8:50 PM 23.0 °F - - N/A% 30.21 in 10.0 mi Calm Calm - N/A   Clear
9:10 PM 21.2 °F - - N/A% 30.21 in 10.0 mi Calm Calm - N/A   Clear
9:50 PM 19.4 °F - - N/A% 30.22 in 10.0 mi Calm Calm - N/A   Clear
10:10 PM 19.4 °F - - N/A% 30.22 in 10.0 mi Calm Calm - N/A   Clear
10:50 PM 17.6 °F - - N/A% 30.22 in 10.0 mi Calm Calm - N/A   Clear
11:10 PM 17.6 °F - - N/A% 30.22 in 10.0 mi Calm Calm - N/A   Clear
11:30 PM 15.8 °F - - N/A% 30.22 in 10.0 mi Calm Calm - N/A   Clear
11:50 PM 15.8 °F - - N/A% 30.22 in 10.0 mi Calm Calm - N/A   Clear